{"data":{"norad_id":61888,"intl_designator":"2024-204Q","name":"STARLINK-32377","alt_names":[],"object_type":"PAYLOAD","status":"ACTIVE","operator":null,"country":"US","launch_date":"2024-11-09","launch_site_code":"AFWTR","launch_vehicle":null,"mission":null,"orbit_class":"UNKNOWN","rcs_meters":null,"size_class":null,"mass_kg":null,"dimensions":null,"purposes":["comms"],"wikipedia_slug":null,"has_3d_model":false,"image_url":null,"decayed_at":null,"tle_current":{"epoch":"2026-05-25T02:58:42.976128Z","epoch_age_seconds":71300,"freshness":"FRESH","line1":"1 61888U 24204Q   26145.12410852  .00000702  00000+0  31920-4 0  9991","line2":"2 61888  53.1603 131.0850 0001215  93.5896 266.5246 15.34393160 86806","mean_motion":15.3439316,"eccentricity":0.0001215,"inclination_deg":53.1603,"raan_deg":131.085,"arg_perigee_deg":93.5896,"mean_anomaly_deg":266.5246,"bstar":3.192e-5,"rev_number":8680,"period_min":93.84817643478,"perigee_km":461.89240564481,"apogee_km":463.55473476337,"semimajor_km":6840.8605702041,"source":"CELESTRAK","updated_at":"2026-05-25T13:38:19.478139Z"}}}